sat.trackr.live / text

‹ back to catalog

STARLINK-6124

NORAD 56126 · 2023-046AL

PAYLOAD ACTIVE UNKNOWN

§ Identity

Operator
Country
US
Launch date
2023-03-29
Launch site
AFETR
Launch vehicle
Mass (kg)
RCS (m²)

Purposes: comms

External: N2YO · Heavens-Above · Gunter

§ Orbital elements

Epoch: 2026-05-25T01:59:41.992224Z

Period
94.27 min
Inclination
43.0045°
Eccentricity
0.0001173
Mean motion
15.27576962 rev/d
Perigee alt
482.3 km
Apogee alt
483.9 km
Semi-major
6,861.2 km
B*
1.1660e-5
RAAN
75.5501°
Arg perigee
263.6735°
Mean anomaly
96.3983°
Rev number
17,388

§ Raw data

STARLINK-61241 56126U 23046AL  26145.08312491  .00000059  00000+0  11660-4 0  99922 56126  43.0045  75.5501 0001173 263.6735  96.3983 15.27576962173880

JSON: /api/v1/satellites/56126 · /tle

For live sub-satellite position, see the globe view (requires WebGL).

§ Visibility from observer

Set your observer location to see the next 7 days of passes ≥ 10°. The values pass through the URL so the page stays shareable.

No JS? Fill the form by hand. The geolocation button needs JavaScript.